User: anonymous   Login
Location: Unspecified
(0.0000°N, 0.0000°E)
Time: 10:06:51
(UTC+00:00)
Language:

COSMOS 2481 - Orbit

View from above orbital plane
View from above orbital plane
View from above satellite
View from above satellite

Ground track
Ground track

The orbit data is extracted from the following two-line orbital elements,

1 38733U 12041A   18113.95164494 +.00000028 +00000-0 +12896-3 0  9997
2 38733 082.4725 130.6732 0019808 078.4208 281.9093 12.42374322260258
Epoch (UTC): 23 April 2018 22:50:22
Eccentricity: 0.0019808
inclination: 82.4725°
perigee height: 1481 km
apogee height: 1512 km
right ascension of ascending node: 130.6732°
argument of perigee: 78.4208°
revolutions per day: 12.42374322
mean anomaly at epoch: 281.9093°
orbit number at epoch: 26025

The dashed part of the orbit path shows where the satellite is in the earth's shadow,  

DLR